Regional Weather Roundup
Issued by NWS

Home | Current Version | Previous Version | Graphics & Text | Print | Product List | Glossary On
Versions: 1 2 3 4 5 6 7 8 9 10 11 12 13 14 15 16 17 18 19 20 21 22 23 24 25 26 27 28 29 30 31 32 33 34 35 36 37 38 39 40 41 42 43 44 45 46 47 48 49 50
000
ASUS43 KTOP 311208
RWRKS

WEATHER ROUNDUP FOR KANSAS
NATIONAL WEATHER SERVICE GOODLAND KS
700 AM CDT THU JUL 31 2014

NOTE:  "FAIR" INDICATES FEW OR NO CLOUDS BELOW 12,000 FEET WITH NO
SIGNIFICANT WEATHER AND/OR OBSTRUCTIONS TO VISIBILITY.

KSZ001>006-013>018-027>032-041>047-311300-
NORTHWEST KANSAS

CITY           SKY/WX    TMP DP  RH WIND       PRES   REMARKS
GOODLAND       PTCLDY    55  53  93 W5        30.23R
6HR MIN TEMP:  55; 6HR MAX TEMP:  59;

HAYS           CLEAR     54  50  87 NW5       30.15S
HILL CITY      CLEAR     56  52  86 W7        30.16S
6HR MIN TEMP:  55; 6HR MAX TEMP:  64;

RUSSELL        CLEAR     57  55  93 SW6       30.13S
6HR MIN TEMP:  57; 6HR MAX TEMP:  62;

$$

KSZ061>065-074>080-084>089-311300-
SOUTHWEST KANSAS

CITY           SKY/WX    TMP DP  RH WIND       PRES   REMARKS
DODGE CITY     CLEAR     58  54  86 W6        30.18R
6HR MIN TEMP:  57; 6HR MAX TEMP:  60;

ELKHART          N/A     56  54  94 W6          N/A
GARDEN CITY    CLEAR     57  54  89 NW7       30.19S
6HR MIN TEMP:  56; 6HR MAX TEMP:  59;

GREAT BEND     CLEAR     57  54  88 S5        30.14S
LIBERAL        CLEAR     55  52  88 W5        30.23R
PRATT          CLEAR     55  54  94 CALM      30.17R
$$

KSZ066>073-081>083-090>101-311300-
SOUTHEAST KANSAS

CITY           SKY/WX    TMP DP  RH WIND       PRES   REMARKS
CHANUTE        FOG       59  59 100 CALM      30.11R VSB 1/4
6HR MIN TEMP:  59; 6HR MAX TEMP:  63;

COFFEYVILLE    MOCLDY    65  63  93 N5        30.09R FOG
6HR MIN TEMP:  65; 6HR MAX TEMP:  67;

HUTCHINSON     CLEAR     55  54  96 CALM      30.13F FOG
6HR MIN TEMP:  54; 6HR MAX TEMP:  58;

MEDICINE LODGE   N/A     58  57  97 N7        30.14R
NEWTON         CLEAR     55  52  88 N6        30.16S
PARSONS        FOG       65  64  97 N3        30.11R VSB 1/4
6HR MIN TEMP:  62; 6HR MAX TEMP:  66;

WICHITA INTL   PTCLDY    60  58  92 N5        30.13S FOG
6HR MIN TEMP:  59; 6HR MAX TEMP:  65;

WICHITA JABRA  CLEAR     57  56  96 N3        30.13R
6HR MIN TEMP:  57; 6HR MAX TEMP:  64;

WICHITA MCCONL CLEAR     58  58 100 N6        30.13S
WINFIELD       CLOUDY    62  62 100 N6        30.13S FOG
6HR MIN TEMP:  62; 6HR MAX TEMP:  66;

$$

KSZ007>012-019>026-033>040-048>060-102>105-311300-
NORTHEAST KANSAS

CITY           SKY/WX    TMP DP  RH WIND       PRES   REMARKS
CONCORDIA      CLEAR     56  53  90 NW5       30.13S
6HR MIN TEMP:  54; 6HR MAX TEMP:  63;

EMPORIA        CLEAR     57  57 100 W5        30.12R
6HR MIN TEMP:  57; 6HR MAX TEMP:  61;

LAWRENCE       CLEAR     55  52  89 NW3       30.11S
6HR MIN TEMP:  53; 6HR MAX TEMP:  58;

MANHATTAN      CLEAR     56  54  93 CALM      30.13S FOG
6HR MIN TEMP:  55; 6HR MAX TEMP:  60;

MARYSVILLE     PTCLDY    54  52  94 CALM      30.12S
OLATHE IND     CLEAR     57  56  96 NW3       30.11S
6HR MIN TEMP:  57; 6HR MAX TEMP:  65;

OLATHE EXE     CLEAR     63  58  83 N5        30.10S
6HR MIN TEMP:  61; 6HR MAX TEMP:  65;

SALINA         CLEAR     55  54  96 CALM      30.13F FOG
6HR MIN TEMP:  55; 6HR MAX TEMP:  63;

TOPEKA BILLARD CLEAR     55  54  96 CALM      30.12R
6HR MIN TEMP:  55; 6HR MAX TEMP:  62;

TOPEKA FORBES  CLEAR     57  55  93 NW3       30.11S
6HR MIN TEMP:  55; 6HR MAX TEMP:  61;

$$



USA.gov is the U.S. government's official web portal to all federal, state and local government web resources and services.